sat.trackr.live / text

‹ back to catalog

STARLINK-3895

NORAD 52583 · 2022-051AZ

PAYLOAD ACTIVE UNKNOWN

§ Identity

Operator
Country
US
Launch date
2022-05-13
Launch site
AFWTR
Launch vehicle
Mass (kg)
RCS (m²)

Purposes: comms

External: N2YO · Heavens-Above · Gunter

§ Orbital elements

Epoch: 2026-05-24T23:29:53.284416Z

Period
95.44 min
Inclination
53.2157°
Eccentricity
0.0001381
Mean motion
15.08840581 rev/d
Perigee alt
538.8 km
Apogee alt
540.7 km
Semi-major
6,917.9 km
B*
1.1304e-5
RAAN
136.6431°
Arg perigee
66.2818°
Mean anomaly
293.8319°
Rev number
22,310

§ Raw data

STARLINK-38951 52583U 22051AZ  26144.97908894 -.00000108  00000+0  11304-4 0  99962 52583  53.2157 136.6431 0001381  66.2818 293.8319 15.08840581223109

JSON: /api/v1/satellites/52583 · /tle

For live sub-satellite position, see the globe view (requires WebGL).

§ Visibility from observer

Set your observer location to see the next 7 days of passes ≥ 10°. The values pass through the URL so the page stays shareable.

No JS? Fill the form by hand. The geolocation button needs JavaScript.